• In Deutschland
  • Länderverzeichnis
  • Für 7 Tage
  • Wassertemperatur
  • Satellitenkarten
  • Wetterkarte
  • Widgets
  • user-avatar
    Anmelden

    Stündliche Wetter Rangpur

    Heute, 25 April, Mittwoch

    Zeit Temperatur Niederschläge Wind Luftdruck Luftfeuchtigkeit
    00:00 +29°C° 0 mm 2 m/S 752 mmHg 48%
    01:00 +29°C° 0,2 mm 3 m/S 752 mmHg 51%
    02:00 +28°C° 0,2 mm 3 m/S 752 mmHg 53%
    03:00 +27°C° 0,2 mm 3 m/S 752 mmHg 55%
    04:00 +27°C° 0,2 mm 3 m/S 752 mmHg 57%
    05:00 +27°C° 0,2 mm 3 m/S 752 mmHg 59%
    06:00 +26°C° 0 mm 3 m/S 752 mmHg 62%
    07:00 +28°C° 0,1 mm 3 m/S 753 mmHg 57%
    08:00 +30°C° 0,1 mm 4 m/S 753 mmHg 52%
    09:00 +32°C° 0,1 mm 4 m/S 753 mmHg 47%
    10:00 +34°C° 0,1 mm 4 m/S 753 mmHg 44%
    11:00 +36°C° 0,1 mm 4 m/S 752 mmHg 41%
    12:00 +36°C° 0 mm 3 m/S 753 mmHg 36%
    13:00 +37°C° 0 mm 3 m/S 752 mmHg 35%
    14:00 +38°C° 0 mm 3 m/S 751 mmHg 34%
    15:00 +38°C° 0 mm 3 m/S 750 mmHg 32%
    16:00 +37°C° 0,1 mm 3 m/S 750 mmHg 35%
    17:00 +36°C° 0,1 mm 2 m/S 750 mmHg 38%
    18:00 +36°C° 0,1 mm 2 m/S 749 mmHg 41%
    19:00 +34°C° 0,3 mm 3 m/S 750 mmHg 45%
    20:00 +33°C° 0,3 mm 3 m/S 750 mmHg 49%
    21:00 +30°C° 0,3 mm 4 m/S 751 mmHg 53%
    22:00 +29°C° 0,4 mm 4 m/S 751 mmHg 55%
    23:00 +29°C° 0,4 mm 3 m/S 752 mmHg 57%

    Morgen, 26 April, Donnerstag

    Zeit Temperatur Niederschläge Wind Luftdruck Luftfeuchtigkeit
    00:00 +28°C° 0,4 mm 3 m/S 752 mmHg 58%
    01:00 +27°C° 0,3 mm 3 m/S 752 mmHg 61%
    02:00 +27°C° 0,3 mm 3 m/S 752 mmHg 64%
    03:00 +26°C° 0,3 mm 3 m/S 751 mmHg 66%
    04:00 +26°C° 0,1 mm 3 m/S 752 mmHg 66%
    05:00 +26°C° 0,1 mm 4 m/S 752 mmHg 65%
    06:00 +26°C° 0,1 mm 4 m/S 753 mmHg 65%
    07:00 +27°C° 0,2 mm 4 m/S 753 mmHg 60%
    08:00 +28°C° 0,2 mm 5 m/S 754 mmHg 56%
    09:00 +29°C° 0,2 mm 6 m/S 754 mmHg 52%
    10:00 +30°C° 0,3 mm 6 m/S 754 mmHg 48%
    11:00 +33°C° 0,3 mm 6 m/S 754 mmHg 44%
    12:00 +34°C° 0,3 mm 6 m/S 754 mmHg 41%
    13:00 +34°C° 0,1 mm 6 m/S 753 mmHg 40%
    14:00 +34°C° 0,1 mm 6 m/S 753 mmHg 40%
    15:00 +34°C° 0,1 mm 6 m/S 752 mmHg 40%
    16:00 +33°C° 0,2 mm 6 m/S 752 mmHg 43%
    17:00 +32°C° 0,2 mm 5 m/S 751 mmHg 46%
    18:00 +30°C° 0,2 mm 5 m/S 751 mmHg 50%
    19:00 +29°C° 0 mm 5 m/S 752 mmHg 51%
    20:00 +28°C° 0 mm 4 m/S 752 mmHg 51%
    21:00 +28°C° 0 mm 4 m/S 752 mmHg 52%
    22:00 +27°C° 0,5 mm 4 m/S 753 mmHg 57%
    23:00 +27°C° 0,5 mm 3 m/S 753 mmHg 62%

    übermorgen, 27 April, Freitag

    Zeit Temperatur Niederschläge Wind Luftdruck Luftfeuchtigkeit
    00:00 +26°C° 0,5 mm 2 m/S 753 mmHg 66%
    01:00 +26°C° 0,2 mm 3 m/S 753 mmHg 66%
    02:00 +26°C° 0,2 mm 3 m/S 753 mmHg 67%
    03:00 +26°C° 0,2 mm 4 m/S 753 mmHg 67%
    04:00 +25°C° 0,2 mm 3 m/S 753 mmHg 66%
    05:00 +25°C° 0,2 mm 3 m/S 754 mmHg 66%
    06:00 +25°C° 0,2 mm 3 m/S 754 mmHg 65%
    07:00 +27°C° 0 mm 3 m/S 755 mmHg 60%
    08:00 +29°C° 0 mm 4 m/S 755 mmHg 54%
    09:00 +32°C° 0 mm 4 m/S 756 mmHg 49%
    10:00 +33°C° 0 mm 4 m/S 755 mmHg 45%
    11:00 +35°C° 0 mm 4 m/S 755 mmHg 41%
    12:00 +36°C° 0 mm 4 m/S 755 mmHg 37%
    13:00 +36°C° 0 mm 4 m/S 754 mmHg 36%
    14:00 +37°C° 0 mm 4 m/S 753 mmHg 35%
    15:00 +37°C° 0 mm 3 m/S 753 mmHg 34%
    16:00 +37°C° 0 mm 3 m/S 752 mmHg 37%
    17:00 +36°C° 0 mm 2 m/S 752 mmHg 40%
    18:00 +35°C° 0 mm 2 m/S 752 mmHg 44%
    19:00 +34°C° 0,5 mm 2 m/S 752 mmHg 48%
    20:00 +31°C° 0,5 mm 3 m/S 753 mmHg 53%
    21:00 +30°C° 0,5 mm 3 m/S 753 mmHg 57%
    22:00 +29°C° 0,7 mm 3 m/S 754 mmHg 61%
    23:00 +28°C° 0,7 mm 3 m/S 754 mmHg 65%

    28 April, Samstag

    Zeit Temperatur Niederschläge Wind Luftdruck Luftfeuchtigkeit
    00:00 +28°C° 0,7 mm 2 m/S 754 mmHg 69%
    01:00 +27°C° 0 mm 2 m/S 754 mmHg 70%
    02:00 +27°C° 0 mm 2 m/S 754 mmHg 71%
    03:00 +26°C° 0 mm 3 m/S 754 mmHg 72%
    04:00 +26°C° 0,5 mm 3 m/S 754 mmHg 73%
    05:00 +26°C° 0,5 mm 3 m/S 754 mmHg 73%
    06:00 +26°C° 0,5 mm 3 m/S 755 mmHg 74%
    07:00 +27°C° 0,4 mm 4 m/S 755 mmHg 71%
    08:00 +27°C° 0,4 mm 4 m/S 756 mmHg 68%
    09:00 +28°C° 0,4 mm 5 m/S 756 mmHg 65%
    10:00 +29°C° 0,7 mm 5 m/S 756 mmHg 65%
    11:00 +29°C° 0,7 mm 4 m/S 756 mmHg 65%
    12:00 +29°C° 0,7 mm 4 m/S 755 mmHg 66%
    13:00 +29°C° 0,3 mm 4 m/S 755 mmHg 62%
    14:00 +30°C° 0,3 mm 4 m/S 754 mmHg 59%
    15:00 +32°C° 0,3 mm 4 m/S 754 mmHg 55%
    16:00 +30°C° 0,1 mm 3 m/S 753 mmHg 57%
    17:00 +30°C° 0,1 mm 3 m/S 753 mmHg 59%
    18:00 +29°C° 0,1 mm 2 m/S 752 mmHg 61%
    19:00 +28°C° 1,4 mm 3 m/S 753 mmHg 65%
    20:00 +27°C° 1,4 mm 3 m/S 753 mmHg 68%
    21:00 +26°C° 1,4 mm 3 m/S 754 mmHg 72%
    22:00 +26°C° 1,3 mm 3 m/S 754 mmHg 75%
    23:00 +25°C° 1,3 mm 3 m/S 754 mmHg 77%

    29 April, Sonntag

    Zeit Temperatur Niederschläge Wind Luftdruck Luftfeuchtigkeit
    00:00 +25°C° 1,3 mm 2 m/S 754 mmHg 80%
    01:00 +25°C° 1,3 mm 2 m/S 753 mmHg 81%
    02:00 +25°C° 1,3 mm 2 m/S 753 mmHg 83%
    03:00 +24°C° 1,3 mm 2 m/S 753 mmHg 85%
    04:00 +24°C° 0,8 mm 2 m/S 753 mmHg 85%
    05:00 +24°C° 0,8 mm 2 m/S 753 mmHg 86%
    06:00 +24°C° 0,8 mm 3 m/S 753 mmHg 87%
    07:00 +26°C° 0,1 mm 3 m/S 753 mmHg 82%
    08:00 +27°C° 0,1 mm 4 m/S 754 mmHg 77%
    09:00 +28°C° 0,1 mm 5 m/S 754 mmHg 71%
    10:00 +29°C° 0,7 mm 5 m/S 754 mmHg 69%
    11:00 +30°C° 0,7 mm 5 m/S 754 mmHg 66%
    12:00 +32°C° 0,7 mm 5 m/S 753 mmHg 63%
    13:00 +32°C° 0,3 mm 5 m/S 753 mmHg 62%
    14:00 +32°C° 0,3 mm 4 m/S 752 mmHg 61%
    15:00 +32°C° 0,3 mm 4 m/S 751 mmHg 61%
    16:00 +30°C° 0,2 mm 4 m/S 751 mmHg 63%
    17:00 +30°C° 0,2 mm 5 m/S 751 mmHg 66%
    18:00 +29°C° 0,2 mm 5 m/S 751 mmHg 68%
    19:00 +28°C° 0 mm 5 m/S 751 mmHg 69%
    20:00 +27°C° 0 mm 5 m/S 752 mmHg 70%
    21:00 +27°C° 0 mm 4 m/S 752 mmHg 71%
    22:00 +26°C° 0,9 mm 4 m/S 753 mmHg 73%
    23:00 +26°C° 0,9 mm 3 m/S 753 mmHg 75%

    30 April, Montag

    Zeit Temperatur Niederschläge Wind Luftdruck Luftfeuchtigkeit
    00:00 +25°C° 0,9 mm 3 m/S 753 mmHg 78%
    01:00 +25°C° 0,3 mm 3 m/S 753 mmHg 79%
    02:00 +23°C° 0,3 mm 4 m/S 752 mmHg 80%
    03:00 +23°C° 0,3 mm 4 m/S 752 mmHg 81%
    04:00 +23°C° 0,1 mm 4 m/S 752 mmHg 81%
    05:00 +23°C° 0,1 mm 5 m/S 753 mmHg 81%
    06:00 +23°C° 0,1 mm 5 m/S 753 mmHg 80%
    07:00 +25°C° 1 mm 5 m/S 753 mmHg 78%
    08:00 +26°C° 1 mm 5 m/S 754 mmHg 76%
    09:00 +26°C° 1 mm 5 m/S 754 mmHg 74%
    10:00 +27°C° 0,7 mm 6 m/S 754 mmHg 72%
    11:00 +28°C° 0,7 mm 6 m/S 753 mmHg 71%
    12:00 +28°C° 0,7 mm 6 m/S 753 mmHg 70%
    13:00 +29°C° 1,4 mm 5 m/S 752 mmHg 70%
    14:00 +29°C° 1,4 mm 5 m/S 752 mmHg 70%
    15:00 +30°C° 1,4 mm 4 m/S 751 mmHg 70%
    16:00 +29°C° 1,8 mm 4 m/S 751 mmHg 74%
    17:00 +29°C° 1,8 mm 4 m/S 751 mmHg 77%
    18:00 +28°C° 1,8 mm 5 m/S 751 mmHg 81%
    19:00 +27°C° 1,9 mm 4 m/S 751 mmHg 83%
    20:00 +27°C° 1,9 mm 4 m/S 752 mmHg 85%
    21:00 +26°C° 1,9 mm 4 m/S 752 mmHg 87%
    22:00 +26°C° 3 mm 4 m/S 752 mmHg 88%
    23:00 +25°C° 3 mm 5 m/S 752 mmHg 89%
    Mehr zeigen